EW7004 Weather Reports


Display with metric or nautical units.
time (UTC)temp
F
wind
direction
speed
MPH
gust
MPH
rain 1hr
in
rain 24hr
in
rain mn
in
humidity
%
barometer
mb
20260904020904 75 211 5.0 7.0 0.00 0.00 0.00 41 1028.9
20260904020403 76 204 5.0 9.0 0.00 0.00 0.00 40 1028.9
20260904015403 76 194 6.0 8.0 0.00 0.00 0.00 38 1028.9
20260904014904 76 217 7.0 13.0 0.00 0.00 0.00 37 1028.9
20260904014403 77 219 7.0 13.0 0.00 0.00 0.00 41 1028.9
20260904013403 77 212 10.0 16.0 0.00 0.00 0.00 38 1028.8
20260904012904 78 217 12.0 15.0 0.00 0.00 0.00 39 1028.7
20260904012404 78 214 10.0 16.0 0.00 0.00 0.00 36 1028.6
20260904011403 79 195 6.0 12.0 0.00 0.00 0.00 37 1028.6
20260904010903 79 223 9.0 17.0 0.00 0.00 0.00 36 1028.5
20260904010404 80 199 12.0 20.0 0.00 0.00 0.00 36 1028.4
20260904005403 81 219 9.0 14.0 0.00 0.00 0.00 34 1028.3
20260904004903 81 218 9.0 14.0 0.00 0.00 0.00 36 1028.3
20260904004404 81 209 9.0 17.0 0.00 0.00 0.00 36 1028.3
20260904003904 82 225 14.0 20.0 0.00 0.00 0.00 31 1028.3
20260904003403 82 219 7.0 15.0 0.00 0.00 0.00 33 1028.3
20260904002904 82 221 11.0 15.0 0.00 0.00 0.00 31 1028.3
20260904002404 82 185 9.0 20.0 0.00 0.00 0.00 29 1028.2
20260904001904 82 212 9.0 18.0 0.00 0.00 0.00 30 1028.2
20260904001403 83 221 13.0 20.0 0.00 0.00 0.00 29 1028.1
20260904000903 83 219 12.0 17.0 0.00 0.00 0.00 30 1028.2
20260904000404 83 219 11.0 20.0 0.00 0.00 0.00 31 1028.2
20260903234403 85 210 9.0 14.0 0.00 0.00 0.00 29 1028.2
20260903233904 85 224 10.0 15.0 0.00 0.00 0.00 28 1028.2
20260903233403 85 201 7.0 18.0 0.00 0.00 0.00 29 1028.3
20260903232904 86 197 10.0 17.0 0.00 0.00 0.00 28 1028.4
20260903232403 86 228 10.0 14.0 0.00 0.00 0.00 28 1028.3
20260903231404 86 212 9.0 17.0 0.00 0.00 0.00 28 1028.5
20260903230903 86 214 11.0 17.0 0.00 0.00 0.00 29 1028.5
20260903230403 86 216 12.0 16.0 0.00 0.00 0.00 28 1028.5
20260903225904 86 219 9.0 16.0 0.00 0.00 0.00 28 1028.4
20260903225404 87 213 12.0 16.0 0.00 0.00 0.00 27 1028.4
20260903224904 87 193 3.0 10.0 0.00 0.00 0.00 28 1028.4
20260903224403 87 222 6.0 12.0 0.00 0.00 0.00 27 1028.5
20260903223903 87 186 9.0 14.0 0.00 0.00 0.00 27 1028.6
20260903223403 87 227 6.0 12.0 0.00 0.00 0.00 27 1028.6
20260903222903 87 216 6.0 14.0 0.00 0.00 0.00 27 1028.7
20260903222403 87 205 6.0 14.0 0.00 0.00 0.00 27 1028.7
20260903221903 87 168 3.0 13.0 0.00 0.00 0.00 26 1028.7
20260903220904 87 224 5.0 9.0 0.00 0.00 0.00 25 1028.8
20260903215903 88 171 3.0 9.0 0.00 0.00 0.00 26 1029.0
20260903214903 87 194 4.0 12.0 0.00 0.00 0.00 25 1029.2
20260903214403 87 143 3.0 8.0 0.00 0.00 0.00 25 1029.2
20260903213904 87 197 5.0 12.0 0.00 0.00 0.00 25 1029.4
20260903213403 87 151 3.0 12.0 0.00 0.00 0.00 26 1029.4
20260903212904 86 199 6.0 12.0 0.00 0.00 0.00 26 1029.5
20260903212404 86 194 6.0 13.0 0.00 0.00 0.00 25 1029.5
20260903211403 86 188 3.0 10.0 0.00 0.00 0.00 25 1029.5
20260903210904 86 228 9.0 13.0 0.00 0.00 0.00 24 1029.5
20260903210403 86 162 6.0 10.0 0.00 0.00 0.00 26 1029.6
20260903205904 86 226 1.0 7.0 0.00 0.00 0.00 24 1029.6
20260903205403 86 148 3.0 9.0 0.00 0.00 0.00 26 1029.7
20260903204903 86 209 6.0 12.0 0.00 0.00 0.00 25 1029.7
20260903204403 86 183 3.0 9.0 0.00 0.00 0.00 26 1029.8
20260903203904 85 198 3.0 12.0 0.00 0.00 0.00 26 1029.8
20260903203404 85 190 2.0 14.0 0.00 0.00 0.00 26 1029.8
20260903202904 84 216 9.0 13.0 0.00 0.00 0.00 26 1029.8
20260903202404 84 253 4.0 12.0 0.00 0.00 0.00 25 1029.9
20260903201404 85 223 2.0 6.0 0.00 0.00 0.00 26 1030.0
20260903200903 85 168 6.0 12.0 0.00 0.00 0.00 27 1030.1
20260903200404 84 211 6.0 12.0 0.00 0.00 0.00 26 1030.1
20260903195903 84 247 2.0 5.0 0.00 0.00 0.00 27 1030.2
20260903195404 83 170 5.0 10.0 0.00 0.00 0.00 28 1030.3
20260903194904 83 230 4.0 12.0 0.00 0.00 0.00 27 1030.3
20260903194403 83 223 4.0 9.0 0.00 0.00 0.00 28 1030.4
20260903193904 83 193 1.0 3.0 0.00 0.00 0.00 28 1030.5
20260903193404 83 168 2.0 5.0 0.00 0.00 0.00 28 1030.6
20260903192904 83 231 3.0 10.0 0.00 0.00 0.00 27 1030.7
20260903192403 83 266 2.0 8.0 0.00 0.00 0.00 27 1030.8
20260903191904 83 239 6.0 10.0 0.00 0.00 0.00 27 1030.9
20260903191403 82 158 2.0 7.0 0.00 0.00 0.00 28 1031.0
20260903190904 82 187 2.0 3.0 0.00 0.00 0.00 28 1031.1
20260903185904 81 177 4.0 9.0 0.00 0.00 0.00 28 1031.4
20260903185403 80 191 4.0 8.0 0.00 0.00 0.00 30 1031.5
20260903184903 79 175 3.0 7.0 0.00 0.00 0.00 27 1031.6
20260903184403 79 212 5.0 10.0 0.00 0.00 0.00 30 1031.6
20260903183903 79 276 3.0 7.0 0.00 0.00 0.00 30 1031.6
20260903183403 79 236 1.0 9.0 0.00 0.00 0.00 29 1031.7
20260903182904 78 229 3.0 7.0 0.00 0.00 0.00 28 1031.7
20260903182403 78 249 1.0 8.0 0.00 0.00 0.00 29 1031.8
20260903181904 78 241 2.0 7.0 0.00 0.00 0.00 30 1031.8
20260903181404 77 209 5.0 7.0 0.00 0.00 0.00 31 1031.9
20260903180904 77 190 5.0 8.0 0.00 0.00 0.00 34 1031.9
20260903180403 77 231 5.0 8.0 0.00 0.00 0.00 34 1031.9
20260903175903 76 122 1.0 7.0 0.00 0.00 0.00 38 1031.9
20260903175404 76 168 3.0 6.0 0.00 0.00 0.00 40 1032.0
20260903174903 75 92 2.0 3.0 0.00 0.00 0.00 40 1032.0
20260903174404 75 145 4.0 8.0 0.00 0.00 0.00 41 1031.9
20260903173903 74 177 1.0 3.0 0.00 0.00 0.00 42 1032.1
20260903173404 74 259 3.0 7.0 0.00 0.00 0.00 44 1032.1
20260903172904 74 276 3.0 6.0 0.00 0.00 0.00 43 1032.1
20260903172405 74 147 0.0 3.0 0.00 0.00 0.00 45 1032.1
20260903171903 73 265 3.0 6.0 0.00 0.00 0.00 45 1032.1
20260903171404 73 250 1.0 3.0 0.00 0.00 0.00 48 1032.1
20260903170903 72 359 1.0 3.0 0.00 0.00 0.00 47 1032.1
20260903170403 72 253 2.0 6.0 0.00 0.00 0.00 47 1032.1
20260903165904 73 265 2.0 3.0 0.00 0.00 0.00 47 1032.1
20260903165403 73 173 1.0 6.0 0.00 0.00 0.00 47 1032.1
20260903164904 72 198 2.0 3.0 0.00 0.00 0.00 47 1032.2
20260903164404 72 282 2.0 3.0 0.00 0.00 0.00 48 1032.2
20260903163903 72 188 0.0 2.0 0.00 0.00 0.00 48 1032.2
20260903161903 71 220 0.0 3.0 0.00 0.00 0.00 46 1032.2
20260903161403 70 172 1.0 3.0 0.00 0.00 0.00 47 1032.3
20260903160903 70 238 1.0 3.0 0.00 0.00 0.00 45 1032.3
20260903160403 69 242 1.0 3.0 0.00 0.00 0.00 42 1032.4
20260903155903 69 221 0.0 0.0 0.00 0.00 0.00 42 1032.3
20260903155403 69 182 0.0 0.0 0.00 0.00 0.00 43 1032.4
20260903154903 68 203 0.0 0.0 0.00 0.00 0.00 42 1032.4
20260903154403 68 92 0.0 0.0 0.00 0.00 0.00 41 1032.5
20260903153903 67 101 1.0 3.0 0.00 0.00 0.00 40 1032.7
20260903153403 67 87 0.0 3.0 0.00 0.00 0.00 41 1032.7
20260903152903 66 96 2.0 3.0 0.00 0.00 0.00 41 1032.7
20260903151903 65 102 0.0 0.0 0.00 0.00 0.00 44 1032.7
20260903151403 65 102 0.0 0.0 0.00 0.00 0.00 43 1032.7
20260903150903 64 102 1.0 3.0 0.00 0.00 0.00 43 1032.7
20260903150403 63 117 0.0 0.0 0.00 0.00 0.00 44 1032.8
20260903145903 63 115 0.0 0.0 0.00 0.00 0.00 46 1032.7
20260903145403 62 115 0.0 0.0 0.00 0.00 0.00 46 1032.7
20260903144403 61 115 0.0 0.0 0.00 0.00 0.00 47 1032.5
20260903143903 60 115 0.0 2.0 0.00 0.00 0.00 46 1032.5
20260903142403 59 120 0.0 2.0 0.00 0.00 0.00 50 1032.3
20260903141904 58 110 0.0 3.0 0.00 0.00 0.00 50 1032.2
20260903141403 58 103 0.0 3.0 0.00 0.00 0.00 52 1032.2
20260903140903 57 114 2.0 3.0 0.00 0.00 0.00 53 1032.2
20260903140403 56 122 2.0 3.0 0.00 0.00 0.00 54 1032.2
20260903135903 56 114 0.0 3.0 0.00 0.00 0.00 58 1032.1
20260903135403 56 114 0.0 2.0 0.00 0.00 0.00 58 1032.0
20260903134903 56 114 1.0 2.0 0.00 0.00 0.00 58 1032.0
20260903134404 56 114 0.0 0.0 0.00 0.00 0.00 59 1031.9
20260903133903 56 114 0.0 0.0 0.00 0.00 0.00 59 1031.8
20260903133403 56 114 0.0 0.0 0.00 0.00 0.00 59 1031.8
20260903131904 57 114 0.0 0.0 0.00 0.00 0.00 59 1031.8
20260903131403 57 114 0.0 0.0 0.00 0.00 0.00 60 1031.9
20260903130904 57 114 0.0 0.0 0.00 0.00 0.00 60 1031.9
20260903130404 57 114 0.0 0.0 0.00 0.00 0.00 60 1031.8
20260903125403 57 114 0.0 0.0 0.00 0.00 0.00 60 1031.9
20260903124903 57 114 0.0 0.0 0.00 0.00 0.00 60 1031.9
20260903124403 57 114 0.0 0.0 0.00 0.00 0.00 60 1031.8
20260903123903 57 114 0.0 0.0 0.00 0.00 0.00 59 1031.8
20260903123403 57 114 0.0 0.0 0.00 0.00 0.00 60 1031.6
20260903122904 57 114 0.0 3.0 0.00 0.00 0.00 60 1031.6
20260903122403 57 114 1.0 3.0 0.00 0.00 0.00 60 1031.7
20260903121904 57 114 1.0 3.0 0.00 0.00 0.00 60 1031.6
20260903120404 58 93 2.0 3.0 0.00 0.00 0.00 59 1031.5
20260903115403 58 93 0.0 2.0 0.00 0.00 0.00 58 1031.6
20260903114903 58 93 1.0 3.0 0.00 0.00 0.00 58 1031.7
20260903114403 58 92 2.0 3.0 0.00 0.00 0.00 59 1031.7
20260903113904 59 94 2.0 3.0 0.00 0.00 0.00 59 1031.8
20260903113404 59 106 2.0 3.0 0.00 0.00 0.00 59 1031.9
20260903112903 59 135 1.0 3.0 0.00 0.00 0.00 59 1031.9
20260903112404 59 142 1.0 3.0 0.00 0.00 0.00 59 1031.9
20260903111904 59 142 2.0 3.0 0.00 0.00 0.00 60 1031.9
20260903111404 59 142 0.0 2.0 0.00 0.00 0.00 60 1031.9
20260903110903 59 142 0.0 3.0 0.00 0.00 0.00 61 1031.9
20260903110403 59 142 0.0 0.0 0.00 0.00 0.00 61 1031.9
20260903105903 59 142 0.0 0.0 0.00 0.00 0.00 60 1031.9
20260903105404 59 142 0.0 0.0 0.00 0.00 0.00 60 1032.0
20260903104904 59 203 0.0 0.0 0.00 0.00 0.00 60 1032.0
20260903104404 59 203 0.0 0.0 0.00 0.00 0.00 60 1032.0
20260903103904 59 203 0.0 0.0 0.00 0.00 0.00 60 1032.1
20260903103404 59 203 0.0 0.0 0.00 0.00 0.00 60 1032.1
20260903102404 60 203 0.0 0.0 0.00 0.00 0.00 64 1032.0
20260903101403 60 203 0.0 0.0 0.00 0.00 0.00 64 1032.1
20260903100903 60 203 0.0 0.0 0.00 0.00 0.00 65 1032.1
20260903095403 60 203 0.0 0.0 0.00 0.00 0.00 64 1032.0
20260903094403 61 203 0.0 0.0 0.00 0.00 0.00 64 1032.0
20260903093903 61 203 0.0 0.0 0.00 0.00 0.00 66 1032.0
20260903093404 62 203 0.0 0.0 0.00 0.00 0.00 71 1032.0
20260903092904 62 203 0.0 0.0 0.00 0.00 0.00 72 1032.1
20260903092403 62 203 0.0 0.0 0.00 0.00 0.00 70 1032.0
20260903091903 62 203 0.0 0.0 0.00 0.00 0.00 69 1032.1
20260903090904 62 203 0.0 0.0 0.00 0.00 0.00 69 1032.1
20260903090403 63 203 0.0 0.0 0.00 0.00 0.00 74 1032.1
20260903085904 63 203 0.0 0.0 0.00 0.00 0.00 74 1032.1
20260903084903 63 203 0.0 0.0 0.00 0.00 0.00 73 1032.3
20260903084403 63 203 0.0 0.0 0.00 0.00 0.00 73 1032.4
20260903083903 63 203 0.0 0.0 0.00 0.00 0.00 73 1032.4
20260903083404 63 203 0.0 0.0 0.00 0.00 0.00 72 1032.4
20260903082904 63 180 0.0 0.0 0.00 0.00 0.00 71 1032.4
20260903082403 63 148 0.0 0.0 0.00 0.00 0.00 71 1032.4
20260903081903 63 148 0.0 0.0 0.00 0.00 0.00 70 1032.4
20260903081404 64 148 0.0 2.0 0.00 0.00 0.00 70 1032.5
20260903080904 64 148 1.0 3.0 0.00 0.00 0.00 70 1032.4
20260903080403 64 148 1.0 2.0 0.00 0.00 0.00 70 1032.4
20260903075903 64 148 1.0 3.0 0.00 0.00 0.00 69 1032.5
20260903074904 64 217 0.0 0.0 0.00 0.00 0.00 68 1032.5
20260903074404 64 217 0.0 2.0 0.00 0.00 0.00 67 1032.5
20260903073904 64 217 0.0 0.0 0.00 0.00 0.00 66 1032.4
20260903073403 64 217 0.0 0.0 0.00 0.00 0.00 66 1032.5
20260903072903 65 217 0.0 0.0 0.00 0.00 0.00 65 1032.5
20260903072403 65 217 0.0 0.0 0.00 0.00 0.00 65 1032.5
20260903071903 65 217 0.0 0.0 0.00 0.00 0.00 64 1032.5
20260903071404 65 217 0.0 0.0 0.00 0.00 0.00 63 1032.6
20260903070903 65 217 0.0 0.0 0.00 0.00 0.00 63 1032.6
20260903070403 65 217 0.0 0.0 0.00 0.00 0.00 63 1032.6
20260903065404 66 217 0.0 0.0 0.00 0.00 0.00 62 1032.6
20260903064903 66 217 0.0 2.0 0.00 0.00 0.00 61 1032.6
20260903064404 66 217 1.0 3.0 0.00 0.00 0.00 61 1032.6
20260903063904 66 210 1.0 5.0 0.00 0.00 0.00 60 1032.6
20260903063403 66 169 2.0 3.0 0.00 0.00 0.00 58 1032.6
20260903062903 66 159 1.0 3.0 0.00 0.00 0.00 56 1032.7
20260903062403 67 184 0.0 0.0 0.00 0.00 0.00 55 1032.7
20260903061403 67 184 0.0 0.0 0.00 0.00 0.00 53 1032.7
20260903060903 67 184 1.0 2.0 0.00 0.00 0.00 51 1032.7
20260903060404 67 184 0.0 0.0 0.00 0.00 0.00 50 1032.8
20260903055404 68 184 0.0 0.0 0.00 0.00 0.00 49 1032.8
20260903054903 68 184 0.0 3.0 0.00 0.00 0.00 48 1032.8
20260903054403 68 184 2.0 3.0 0.00 0.00 0.00 47 1032.8
20260903053904 68 190 1.0 3.0 0.00 0.00 0.00 47 1032.9
20260903052903 69 192 2.0 5.0 0.00 0.00 0.00 45 1032.8
20260903052404 69 200 2.0 3.0 0.00 0.00 0.00 44 1032.8
20260903051904 70 200 2.0 5.0 0.00 0.00 0.00 44 1032.7
20260903051404 70 195 3.0 5.0 0.00 0.00 0.00 43 1032.8
20260903050904 71 216 2.0 3.0 0.00 0.00 0.00 42 1032.8
20260903050403 71 229 0.0 0.0 0.00 0.00 0.00 43 1032.7
20260903045903 71 229 1.0 3.0 0.00 0.00 0.00 43 1032.7
20260903045404 71 229 2.0 3.0 0.00 0.00 0.00 43 1032.7
20260903044904 71 185 1.0 3.0 0.00 0.00 0.00 41 1032.6
20260903044403 72 227 2.0 3.0 0.00 0.00 0.00 39 1032.6
20260903043904 72 219 1.0 3.0 0.00 0.00 0.00 39 1032.5
20260903043403 72 211 3.0 5.0 0.00 0.00 0.00 37 1032.5
20260903042903 72 215 4.0 6.0 0.00 0.00 0.00 37 1032.5
20260903042406 72 213 2.0 5.0 0.00 0.00 0.00 37 1032.5
20260903041903 72 208 2.0 5.0 0.00 0.00 0.00 37 1032.4
20260903041404 72 203 2.0 3.0 0.00 0.00 0.00 37 1032.4
20260903040903 72 198 2.0 3.0 0.00 0.00 0.00 36 1032.3
20260903040403 73 174 1.0 3.0 0.00 0.00 0.00 35 1032.2
20260903035903 73 167 1.0 3.0 0.00 0.00 0.00 34 1032.2
20260903035403 73 135 2.0 5.0 0.00 0.00 0.00 34 1032.1
20260903034903 73 136 2.0 3.0 0.00 0.00 0.00 34 1032.0
20260903034403 73 133 3.0 7.0 0.00 0.00 0.00 35 1032.0
20260903033903 73 135 2.0 6.0 0.00 0.00 0.00 35 1032.0
20260903032903 74 152 2.0 6.0 0.00 0.00 0.00 35 1031.8
20260903031903 74 139 3.0 8.0 0.00 0.00 0.00 35 1031.8
20260903030903 74 196 2.0 7.0 0.00 0.00 0.00 32 1031.6
20260903030403 75 153 4.0 8.0 0.00 0.00 0.00 30 1031.5
20260903025903 75 130 2.0 7.0 0.00 0.00 0.00 28 1031.4
20260903025403 75 196 3.0 9.0 0.00 0.00 0.00 28 1031.4
20260903024903 75 206 5.0 12.0 0.00 0.00 0.00 28 1031.4
20260903024403 75 217 4.0 8.0 0.00 0.00 0.00 28 1031.4
20260903023903 75 202 4.0 8.0 0.00 0.00 0.00 30 1031.3
20260903023404 76 213 6.0 9.0 0.00 0.00 0.00 31 1031.2
20260903022403 76 201 5.0 9.0 0.00 0.00 0.00 33 1031.2
20260903021903 77 180 4.0 8.0 0.00 0.00 0.00 33 1031.2
20260903021403 77 201 5.0 9.0 0.00 0.00 0.00 34 1031.3